Location: Bastogne Gables
(35.1554°N, 78.9900°W)
Time: 13:15:36
(UTC+00:00)

AQUARIUS - Pass Details

Date: 01 March 2021
Orbit: 650 x 653 km, 98.0° (Epoch: 13 April)

Event Time Altitude Azimuth Distance (km) Brightness Sun altitude
Rises 10:50:26 0° 26° (NNE) 2,976 7.9 -12.0°
Reaches altitude 10° 10:52:58 10° 39° (NE) 2,060 7.3 -11.5°
Maximum altitude 10:56:45 26° 96° (E) 1,278 6.7 -10.7°
Drops below altitude 10° 11:00:29 10° 153° (SSE) 2,046 7.1 -9.9°
Sets 11:02:59 0° 166° (SSE) 2,952 7.8 -9.4°
